Weather History for New Philadelphia, OH

Change the Weather History Date:

Monday, July 15, 2013

  Actual Average Record
Temperature  
Mean Temperature 79 °F 73 °F  
Max Temperature 90 °F 84 °F 95 °F (1995)
Min Temperature 67 °F 62 °F 51 °F (2001)
Degree Days  
Heating Degree Days 0 0  
Month to date heating degree days 0 0  
Since 1 June heating degree days 22 35  
Since 1 July heating degree days 0 0  
Cooling Degree Days 14 8  
Month to date cooling degree days 127 111  
Year to date cooling degree days 370 297  
Since 1 June cooling degree days 272 254  
Growing Degree Days 28 (Base 50)    
Moisture  
Dew Point 69 °F    
Average Humidity 75    
Maximum Humidity 100    
Minimum Humidity 50    
Precipitation  
Precipitation 0.00 in 0.13 in 0.65 in (1966)
Month to date precipitation 2.05 1.76  
Year to date precipitation 19.65 21.09  
Sea Level Pressure  
Sea Level Pressure 30.30 in    
Wind  
Wind Speed 2 mph (SSW)    
Max Wind Speed 7 mph    
Max Gust Speed 9 mph    
Visibility 10 miles    
Events      
T = Trace of Precipitation, MM = Missing Value Source: NWS Daily Summary

Daily Weather History Graph

Daily Weather History Graph

Search for Another Location

Airport:

Trip Planner

Search our weather history database for the weather conditions in past years. The results will help you decide how hot, cold, wet, or windy it might be!

Date:

Astronomy

Jul. 15, 2013 Rise Set
Actual Time 6:08 AM EDT 8:54 PM EDT
Civil Twilight 5:36 AM EDT 9:26 PM EDT
Nautical Twilight 4:55 AM EDT 10:07 PM EDT
Astronomical Twilight 4:09 AM EDT 10:53 PM EDT
Moon 1:28 PM EDT (7/15) 12:05 AM EDT (7/15)
Length of Visible Light 15h 50m
Length of Day
14h 46m
Waxing Crescent, 45% of the Moon is Illuminated
Jul 15
Waxing Crescent
Jul 15
First Quarter
Jul 22
Full
Jul 29
Last Quarter
Aug 6
New

Hourly Weather History & Observations

Time (EDT) Temp. Heat Index Dew Point Humidity Pressure Visibility Wind Dir Wind Speed Gust Speed Precip Events Conditions
12:53 AM 71.1 °F - 69.1 °F 93% 30.28 in 10.0 mi Calm Calm - N/A   Clear
1:53 AM 70.0 °F - 69.1 °F 97% 30.28 in 10.0 mi Calm Calm - N/A   Clear
2:53 AM 70.0 °F - 68.0 °F 93% 30.29 in 9.0 mi Calm Calm - N/A   Clear
3:53 AM 70.0 °F - 68.0 °F 93% 30.29 in 10.0 mi SE 3.5 mph - N/A   Clear
4:53 AM 69.1 °F - 66.9 °F 93% 30.29 in 10.0 mi SE 4.6 mph - N/A   Clear
5:53 AM 68.0 °F - 66.0 °F 93% 30.30 in 10.0 mi Calm Calm - N/A   Clear
6:53 AM 68.0 °F - 66.0 °F 93% 30.32 in 10.0 mi ESE 3.5 mph - N/A   Clear
7:53 AM 73.0 °F - 69.1 °F 87% 30.34 in 10.0 mi Calm Calm - N/A   Clear
8:53 AM 77.0 °F - 70.0 °F 79% 30.34 in 10.0 mi Calm Calm - N/A   Clear
9:53 AM 80.1 °F 83.2 °F 70.0 °F 71% 30.34 in 10.0 mi West 4.6 mph - N/A   Clear
10:53 AM 82.0 °F 85.9 °F 70.0 °F 67% 30.34 in 10.0 mi SW 4.6 mph - N/A   Clear
11:53 AM 84.0 °F 89.0 °F 71.1 °F 65% 30.34 in 10.0 mi SSW 3.5 mph - N/A   Mostly Cloudy
12:53 PM 86.0 °F 90.1 °F 69.1 °F 57% 30.32 in 10.0 mi Calm Calm - N/A   Partly Cloudy
1:53 PM 87.1 °F 91.3 °F 69.1 °F 55% 30.31 in 10.0 mi South 3.5 mph - N/A   Scattered Clouds
2:53 PM 88.0 °F 92.1 °F 69.1 °F 53% 30.30 in 10.0 mi Calm Calm - N/A   Clear
3:53 PM 89.1 °F 94.1 °F 70.0 °F 53% 30.29 in 10.0 mi WSW 3.5 mph - N/A   Clear
4:53 PM 89.1 °F 92.9 °F 68.0 °F 50% 30.28 in 10.0 mi SW 3.5 mph - N/A   Clear
5:53 PM 88.0 °F 91.4 °F 68.0 °F 51% 30.27 in 10.0 mi South 3.5 mph - N/A   Clear
6:53 PM 87.1 °F 92.0 °F 70.0 °F 57% 30.26 in 10.0 mi Calm Calm - N/A   Clear
7:53 PM 86.0 °F 91.5 °F 71.1 °F 61% 30.25 in 10.0 mi Calm Calm - N/A   Clear
8:53 PM 78.1 °F - 72.0 °F 81% 30.26 in 10.0 mi Calm Calm - N/A   Clear
9:53 PM 77.0 °F - 71.1 °F 82% 30.28 in 10.0 mi Calm Calm - N/A   Clear
10:53 PM 73.9 °F - 70.0 °F 87% 30.29 in 10.0 mi Calm Calm - N/A   Clear
11:53 PM 73.0 °F - 71.1 °F 93% 30.29 in 10.0 mi Calm Calm - N/A   Clear